FLOCK 2P-5

Last updated on Wed Feb 14 2018 16:19:52 GMT+0000 (Coordinated Universal Time)

1 41616U 16040T 18044.90439528 .00003336 00000-0 14093-3 0 9991 2 41616 97.4333 110.9299 0009043 321.4533 38.6057 15.23914589 91441
UTC large
Height (km)
Speed (km/s)
/
Latitude / Longitude
Inclination (degrees)
Orbital Period (minutes)
Azimuth
Elevation
Range (km)
Doppler Factor

Next 0 passes for location: London (51.5072 / 0.1276)

Sorry there are no passes over London.